Location: Berbisdorf
(50.7638°N, 12.9442°E)
Time: 04:03:04
(UTC+00:00)

GEOS 3 Rocket - Pass Details

Date: 03 October 2020
Orbit: 770 x 849 km, 115.0° (Epoch: 21 October)

Event Time Altitude Azimuth Distance (km) Brightness Sun altitude
Rises 17:07:06 0° 197° (SSW) 3,336 7.1 -4.9°
Reaches altitude 10° 17:10:58 10° 227° (SW) 2,429 6.9 -5.6°
Maximum altitude 17:13:05 12° 250° (WSW) 2,277 7.3 -5.9°
Drops below altitude 10° 17:15:13 10° 274° (W) 2,453 8.0 -6.2°
Sets 17:19:10 0° 304° (WNW) 3,408 8.0 -6.9°
